| time (UTC) | temp F | wind direction | speed knots | gust knots | rain 1hr in | rain 24hr in | rain mn in | humidity % | barometer mb |
| 20260510141706 | 73 | 141 | 7.0 | 8.7 | 0.00 | 0.00 | 0.00 | 88 | 1014.5 |
| 20260510141158 | 73 | 143 | 7.0 | 9.6 | 0.00 | 0.00 | 0.00 | 88 | 1014.4 |
| 20260510140711 | 73 | 170 | 7.8 | 9.6 | 0.00 | 0.00 | 0.00 | 88 | 1014.2 |
| 20260510140204 | 73 | 157 | 7.8 | 9.6 | 0.00 | 0.00 | 0.00 | 88 | 1014.3 |
| 20260510135657 | 73 | 149 | 7.8 | 10.4 | 0.00 | 0.01 | 0.00 | 88 | 1014.1 |
| 20260510135155 | 73 | 151 | 8.7 | 9.6 | 0.00 | 0.01 | 0.00 | 88 | 1014.2 |
| 20260510134614 | 73 | 132 | 7.8 | 9.6 | 0.00 | 0.01 | 0.00 | 87 | 1014.2 |
| 20260510134229 | 73 | 146 | 7.8 | 8.7 | 0.00 | 0.01 | 0.00 | 87 | 1014.1 |
| 20260510133645 | 73 | 138 | 7.0 | 7.8 | 0.00 | 0.01 | 0.00 | 87 | 1014.1 |
| 20260510132622 | 73 | 131 | 7.0 | 7.8 | 0.00 | 0.01 | 0.00 | 87 | 1014.0 |
| 20260510132120 | 73 | 151 | 4.3 | 5.2 | 0.00 | 0.01 | 0.00 | 87 | 1014.0 |
| 20260510131619 | 73 | 151 | 4.3 | 5.2 | 0.00 | 0.01 | 0.00 | 87 | 1013.9 |
| 20260510131137 | 73 | 138 | 3.5 | 5.2 | 0.00 | 0.01 | 0.00 | 86 | 1013.7 |
| 20260510130654 | 73 | 175 | 1.7 | 4.3 | 0.00 | 0.01 | 0.00 | 86 | 1013.6 |
| 20260510130150 | 73 | 153 | 1.7 | 4.3 | 0.00 | 0.01 | 0.00 | 86 | 1013.4 |
| 20260510125705 | 73 | 151 | 1.7 | 4.3 | 0.00 | 0.01 | 0.00 | 87 | 1013.3 |
| 20260510125201 | 72 | 151 | 0.0 | 4.3 | 0.00 | 0.01 | 0.00 | 86 | 1013.5 |
| 20260510124654 | 72 | 245 | 1.7 | 5.2 | 0.00 | 0.01 | 0.00 | 86 | 1013.2 |
| 20260510124145 | 72 | 227 | 2.6 | 5.2 | 0.00 | 0.01 | 0.00 | 86 | 1013.2 |
| 20260510123644 | 72 | 261 | 1.7 | 4.3 | 0.00 | 0.01 | 0.00 | 86 | 1013.3 |
| 20260510122726 | 72 | 255 | 0.9 | 3.5 | 0.00 | 0.01 | 0.00 | 86 | 1013.3 |
| 20260510122158 | 72 | 255 | 0.0 | 3.5 | 0.00 | 0.01 | 0.00 | 86 | 1013.3 |
| 20260510121642 | 72 | 253 | 0.9 | 7.0 | 0.00 | 0.01 | 0.00 | 86 | 1013.2 |
| 20260510121135 | 72 | 265 | 2.6 | 7.0 | 0.00 | 0.01 | 0.00 | 86 | 1013.0 |
| 20260510120639 | 72 | 166 | 0.0 | 6.1 | 0.00 | 0.01 | 0.00 | 86 | 1012.9 |
| 20260510120214 | 72 | 165 | 0.9 | 6.1 | 0.00 | 0.01 | 0.00 | 86 | 1012.7 |
| 20260510115712 | 72 | 184 | 4.3 | 7.0 | 0.00 | 0.01 | 0.00 | 86 | 1012.8 |
| 20260510115209 | 72 | 168 | 5.2 | 8.7 | 0.00 | 0.01 | 0.00 | 86 | 1012.8 |
| 20260510114711 | 72 | 188 | 5.2 | 8.7 | 0.00 | 0.01 | 0.00 | 86 | 1012.8 |
| 20260510114213 | 72 | 188 | 5.2 | 7.8 | 0.00 | 0.01 | 0.00 | 85 | 1012.8 |
| 20260510113704 | 72 | 184 | 6.1 | 8.7 | 0.00 | 0.01 | 0.00 | 85 | 1012.7 |
| 20260510113157 | 72 | 201 | 6.1 | 8.7 | 0.00 | 0.01 | 0.00 | 85 | 1012.6 |
| 20260510112652 | 72 | 196 | 5.2 | 7.8 | 0.00 | 0.01 | 0.00 | 85 | 1012.7 |
| 20260510112147 | 72 | 178 | 6.1 | 7.8 | 0.00 | 0.01 | 0.00 | 85 | 1012.7 |
| 20260510111208 | 72 | 188 | 4.3 | 7.0 | 0.00 | 0.01 | 0.00 | 85 | 1012.7 |
| 20260510110639 | 72 | 172 | 4.3 | 7.0 | 0.00 | 0.01 | 0.00 | 84 | 1012.7 |
| 20260510110213 | 72 | 173 | 4.3 | 7.8 | 0.00 | 0.01 | 0.00 | 84 | 1012.7 |
| 20260510105627 | 72 | 178 | 5.2 | 7.8 | 0.00 | 0.01 | 0.00 | 85 | 1012.7 |
| 20260510105122 | 71 | 177 | 3.5 | 6.1 | 0.00 | 0.01 | 0.00 | 85 | 1012.8 |
| 20260510104645 | 71 | 162 | 2.6 | 6.1 | 0.00 | 0.01 | 0.00 | 84 | 1012.7 |
| 20260510104140 | 71 | 97 | 3.5 | 7.8 | 0.00 | 0.01 | 0.00 | 84 | 1012.7 |
| 20260510103208 | 71 | 99 | 5.2 | 8.7 | 0.00 | 0.01 | 0.00 | 84 | 1012.5 |
| 20260510102643 | 72 | 120 | 7.8 | 8.7 | 0.00 | 0.01 | 0.00 | 83 | 1012.6 |
| 20260510102157 | 72 | 94 | 6.1 | 7.8 | 0.00 | 0.01 | 0.00 | 82 | 1012.6 |
| 20260510101655 | 73 | 111 | 4.3 | 6.1 | 0.00 | 0.01 | 0.00 | 81 | 1012.7 |
| 20260510101159 | 73 | 112 | 1.7 | 8.7 | 0.00 | 0.01 | 0.00 | 81 | 1012.7 |
| 20260510100629 | 73 | 169 | 4.3 | 8.7 | 0.00 | 0.01 | 0.00 | 81 | 1012.8 |
| 20260510100145 | 73 | 150 | 6.1 | 7.0 | 0.00 | 0.01 | 0.00 | 81 | 1013.0 |
| 20260510095156 | 73 | 184 | 2.6 | 5.2 | 0.00 | 0.01 | 0.00 | 81 | 1013.0 |
| 20260510094648 | 73 | 190 | 1.7 | 5.2 | 0.00 | 0.01 | 0.00 | 81 | 1012.9 |
| 20260510094140 | 73 | 195 | 1.7 | 6.1 | 0.00 | 0.01 | 0.00 | 81 | 1013.0 |
| 20260510093657 | 73 | 187 | 4.3 | 7.0 | 0.00 | 0.01 | 0.00 | 81 | 1013.1 |
| 20260510093150 | 73 | 168 | 4.3 | 7.0 | 0.00 | 0.01 | 0.00 | 81 | 1013.0 |
| 20260510092647 | 73 | 209 | 3.5 | 6.1 | 0.00 | 0.01 | 0.00 | 81 | 1012.8 |
| 20260510091656 | 73 | 155 | 1.7 | 4.3 | 0.00 | 0.01 | 0.00 | 82 | 1012.9 |
| 20260510091148 | 73 | 141 | 2.6 | 5.2 | 0.00 | 0.01 | 0.00 | 82 | 1012.8 |
| 20260510090658 | 73 | 141 | 1.7 | 5.2 | 0.00 | 0.01 | 0.00 | 82 | 1012.7 |
| 20260510085654 | 74 | 131 | 0.0 | 4.3 | 0.00 | 0.01 | 0.00 | 82 | 1012.8 |
| 20260510085148 | 74 | 104 | 0.0 | 1.7 | 0.00 | 0.01 | 0.00 | 82 | 1012.8 |
| 20260510084622 | 74 | 104 | 0.0 | 5.2 | 0.00 | 0.01 | 0.00 | 82 | 1012.8 |
| 20260510084219 | 74 | 104 | 0.9 | 5.2 | 0.00 | 0.01 | 0.00 | 82 | 1012.8 |
| 20260510083648 | 74 | 104 | 1.7 | 6.1 | 0.00 | 0.01 | 0.00 | 83 | 1012.8 |
| 20260510082711 | 74 | 126 | 0.9 | 7.8 | 0.00 | 0.01 | 0.00 | 83 | 1012.7 |
| 20260510082206 | 74 | 118 | 3.5 | 7.8 | 0.00 | 0.01 | 0.00 | 83 | 1012.9 |
| 20260510081656 | 74 | 111 | 5.2 | 7.0 | 0.00 | 0.01 | 0.00 | 83 | 1012.9 |
| 20260510081153 | 74 | 143 | 4.3 | 6.1 | 0.00 | 0.01 | 0.00 | 83 | 1012.9 |
| 20260510080649 | 74 | 104 | 5.2 | 6.1 | 0.00 | 0.01 | 0.00 | 84 | 1012.8 |
| 20260510080140 | 74 | 101 | 5.2 | 6.1 | 0.00 | 0.01 | 0.00 | 83 | 1013.0 |
| 20260510075655 | 74 | 97 | 1.7 | 4.3 | 0.00 | 0.01 | 0.00 | 83 | 1012.9 |
| 20260510075153 | 74 | 76 | 1.7 | 4.3 | 0.00 | 0.01 | 0.00 | 84 | 1012.8 |
| 20260510074708 | 74 | 86 | 1.7 | 6.1 | 0.00 | 0.01 | 0.00 | 84 | 1012.9 |
| 20260510074158 | 74 | 121 | 2.6 | 7.0 | 0.00 | 0.01 | 0.00 | 84 | 1012.7 |
| 20260510073656 | 74 | 110 | 5.2 | 7.0 | 0.00 | 0.01 | 0.00 | 83 | 1012.8 |
| 20260510073151 | 75 | 122 | 5.2 | 7.0 | 0.00 | 0.01 | 0.00 | 84 | 1012.9 |
| 20260510072648 | 75 | 116 | 5.2 | 7.0 | 0.00 | 0.01 | 0.00 | 83 | 1012.8 |
| 20260510072145 | 75 | 93 | 6.1 | 7.8 | 0.00 | 0.01 | 0.00 | 83 | 1012.8 |
| 20260510071616 | 75 | 133 | 5.2 | 7.8 | 0.00 | 0.01 | 0.00 | 83 | 1012.8 |
| 20260510071213 | 75 | 134 | 5.2 | 7.0 | 0.00 | 0.01 | 0.00 | 84 | 1012.8 |
| 20260510070724 | 75 | 142 | 5.2 | 7.0 | 0.00 | 0.01 | 0.00 | 83 | 1012.8 |
| 20260510070158 | 75 | 146 | 4.3 | 7.0 | 0.00 | 0.01 | 0.00 | 83 | 1012.8 |
| 20260510065624 | 75 | 153 | 5.2 | 7.0 | 0.00 | 0.01 | 0.00 | 83 | 1012.8 |
| 20260510065114 | 75 | 159 | 4.3 | 5.2 | 0.00 | 0.01 | 0.00 | 84 | 1012.8 |
| 20260510064627 | 76 | 159 | 3.5 | 5.2 | 0.00 | 0.01 | 0.00 | 84 | 1012.8 |
| 20260510064119 | 75 | 128 | 3.5 | 5.2 | 0.00 | 0.01 | 0.00 | 83 | 1012.7 |
| 20260510063631 | 75 | 111 | 4.3 | 5.2 | 0.00 | 0.01 | 0.00 | 83 | 1012.7 |
| 20260510063124 | 75 | 99 | 3.5 | 4.3 | 0.00 | 0.01 | 0.00 | 83 | 1012.7 |
| 20260510062618 | 75 | 99 | 1.7 | 4.3 | 0.00 | 0.01 | 0.00 | 83 | 1012.6 |
| 20260510062131 | 75 | 100 | 2.6 | 4.3 | 0.00 | 0.01 | 0.00 | 83 | 1012.6 |
| 20260510061626 | 75 | 100 | 1.7 | 4.3 | 0.00 | 0.01 | 0.00 | 83 | 1012.6 |
| 20260510061120 | 75 | 105 | 0.9 | 4.3 | 0.00 | 0.01 | 0.00 | 83 | 1012.7 |
| 20260510060653 | 75 | 109 | 0.9 | 5.2 | 0.00 | 0.01 | 0.00 | 83 | 1012.6 |
| 20260510060124 | 76 | 107 | 2.6 | 7.0 | 0.00 | 0.01 | 0.00 | 83 | 1012.6 |
| 20260510055623 | 75 | 101 | 4.3 | 7.0 | 0.00 | 0.01 | 0.00 | 83 | 1012.7 |
| 20260510055117 | 75 | 99 | 4.3 | 6.1 | 0.00 | 0.01 | 0.00 | 83 | 1012.7 |
| 20260510054631 | 76 | 99 | 4.3 | 6.1 | 0.00 | 0.01 | 0.00 | 83 | 1012.7 |
| 20260510054123 | 76 | 114 | 4.3 | 6.1 | 0.00 | 0.01 | 0.00 | 83 | 1012.7 |
| 20260510053638 | 76 | 118 | 3.5 | 8.7 | 0.00 | 0.01 | 0.00 | 82 | 1012.6 |
| 20260510053129 | 76 | 97 | 5.2 | 8.7 | 0.00 | 0.01 | 0.00 | 82 | 1012.7 |
| 20260510052623 | 76 | 100 | 7.8 | 8.7 | 0.00 | 0.01 | 0.00 | 82 | 1012.7 |
| 20260510052138 | 76 | 86 | 6.1 | 7.8 | 0.00 | 0.01 | 0.00 | 83 | 1012.7 |
| 20260510051631 | 76 | 101 | 6.1 | 8.7 | 0.00 | 0.01 | 0.00 | 83 | 1012.6 |
| 20260510051145 | 76 | 101 | 7.0 | 9.6 | 0.00 | 0.01 | 0.00 | 83 | 1012.5 |
| 20260510050618 | 76 | 102 | 7.8 | 9.6 | 0.00 | 0.01 | 0.00 | 83 | 1012.6 |
| 20260510050131 | 76 | 105 | 5.2 | 7.0 | 0.00 | 0.01 | 0.00 | 82 | 1012.5 |
| 20260510045713 | 76 | 113 | 4.3 | 5.2 | 0.00 | 0.01 | 0.01 | 82 | 1012.6 |
| 20260510045206 | 76 | 122 | 3.5 | 4.3 | 0.00 | 0.01 | 0.01 | 82 | 1012.6 |
| 20260510044657 | 77 | 133 | 2.6 | 4.3 | 0.00 | 0.01 | 0.01 | 82 | 1012.6 |
| 20260510044147 | 77 | 132 | 3.5 | 4.3 | 0.00 | 0.01 | 0.01 | 81 | 1012.5 |
| 20260510043129 | 77 | 115 | 3.5 | 4.3 | 0.00 | 0.01 | 0.01 | 80 | 1012.4 |
| 20260510042734 | 77 | 115 | 1.7 | 2.6 | 0.00 | 0.01 | 0.01 | 80 | 1012.3 |
| 20260510042206 | 77 | 115 | 1.7 | 3.5 | 0.00 | 0.01 | 0.01 | 80 | 1012.2 |
| 20260510041658 | 77 | 115 | 0.9 | 2.6 | 0.00 | 0.01 | 0.01 | 79 | 1012.1 |
| 20260510041154 | 77 | 115 | 0.0 | 3.5 | 0.00 | 0.01 | 0.01 | 79 | 1012.1 |
| 20260510040650 | 77 | 115 | 0.9 | 3.5 | 0.00 | 0.01 | 0.01 | 79 | 1012.1 |
| 20260510040144 | 78 | 115 | 1.7 | 3.5 | 0.00 | 0.01 | 0.01 | 79 | 1012.2 |
| 20260510035641 | 78 | 115 | 2.6 | 5.2 | 0.00 | 0.01 | 0.01 | 78 | 1012.1 |
| 20260510035115 | 78 | 115 | 3.5 | 5.2 | 0.00 | 0.01 | 0.01 | 78 | 1012.1 |
| 20260510034627 | 78 | 113 | 4.3 | 6.1 | 0.00 | 0.01 | 0.01 | 78 | 1012.0 |
| 20260510034226 | 78 | 118 | 4.3 | 6.1 | 0.00 | 0.01 | 0.01 | 78 | 1011.9 |
| 20260510033659 | 78 | 106 | 5.2 | 6.1 | 0.00 | 0.01 | 0.01 | 78 | 1012.0 |
| 20260510033150 | 78 | 118 | 5.2 | 6.1 | 0.00 | 0.01 | 0.01 | 77 | 1012.0 |
| 20260510032649 | 78 | 118 | 5.2 | 6.1 | 0.00 | 0.01 | 0.01 | 77 | 1012.0 |
| 20260510032146 | 78 | 114 | 3.5 | 5.2 | 0.00 | 0.01 | 0.01 | 76 | 1011.9 |
| 20260510031644 | 79 | 120 | 4.3 | 5.2 | 0.00 | 0.01 | 0.01 | 76 | 1011.8 |
| 20260510030712 | 79 | 120 | 4.3 | 7.0 | 0.00 | 0.01 | 0.01 | 75 | 1011.7 |
| 20260510030123 | 79 | 118 | 5.2 | 7.0 | 0.00 | 0.01 | 0.01 | 75 | 1011.7 |
| 20260510025642 | 79 | 111 | 5.2 | 7.0 | 0.00 | 0.01 | 0.01 | 75 | 1011.6 |
| 20260510025155 | 79 | 105 | 6.1 | 7.8 | 0.00 | 0.01 | 0.01 | 75 | 1011.7 |
| 20260510024706 | 79 | 105 | 6.1 | 7.8 | 0.00 | 0.01 | 0.01 | 74 | 1011.5 |
| 20260510024157 | 79 | 101 | 6.1 | 7.8 | 0.00 | 0.01 | 0.01 | 74 | 1011.4 |
| 20260510023641 | 79 | 104 | 5.2 | 7.0 | 0.00 | 0.01 | 0.01 | 73 | 1011.4 |
| 20260510022710 | 79 | 103 | 5.2 | 7.0 | 0.00 | 0.01 | 0.01 | 72 | 1011.3 |
| 20260510022122 | 80 | 106 | 4.3 | 5.2 | 0.00 | 0.01 | 0.01 | 72 | 1011.3 |
| 20260510021622 | 80 | 107 | 4.3 | 5.2 | 0.00 | 0.01 | 0.01 | 71 | 1011.2 |
| 20260510021134 | 80 | 111 | 4.3 | 6.1 | 0.00 | 0.01 | 0.01 | 71 | 1011.2 |
| 20260510020614 | 80 | 110 | 4.3 | 7.0 | 0.00 | 0.01 | 0.01 | 71 | 1011.2 |
| 20260510020127 | 80 | 108 | 4.3 | 7.0 | 0.00 | 0.01 | 0.01 | 70 | 1011.0 |
| 20260510015728 | 80 | 122 | 5.2 | 7.0 | 0.00 | 0.01 | 0.01 | 70 | 1011.1 |
| 20260510015159 | 80 | 111 | 5.2 | 7.0 | 0.00 | 0.01 | 0.01 | 69 | 1011.0 |
| 20260510014654 | 81 | 118 | 5.2 | 8.7 | 0.00 | 0.01 | 0.01 | 69 | 1010.9 |
| 20260510014145 | 81 | 117 | 6.1 | 8.7 | 0.00 | 0.01 | 0.01 | 68 | 1010.8 |
| 20260510013207 | 81 | 113 | 6.1 | 9.6 | 0.00 | 0.01 | 0.01 | 66 | 1010.7 |
| 20260510012127 | 81 | 109 | 7.0 | 8.7 | 0.00 | 0.01 | 0.01 | 65 | 1010.5 |
| 20260510011733 | 82 | 107 | 6.1 | 8.7 | 0.00 | 0.01 | 0.01 | 65 | 1010.5 |
| 20260510011125 | 82 | 103 | 7.0 | 8.7 | 0.00 | 0.01 | 0.01 | 64 | 1010.6 |
| 20260510010637 | 82 | 101 | 7.0 | 7.8 | 0.00 | 0.01 | 0.01 | 64 | 1010.4 |
| 20260510010134 | 82 | 106 | 6.1 | 8.7 | 0.00 | 0.01 | 0.01 | 64 | 1010.3 |
| 20260510005627 | 82 | 107 | 6.1 | 8.7 | 0.00 | 0.01 | 0.01 | 63 | 1010.4 |
| 20260510005225 | 83 | 131 | 6.1 | 11.3 | 0.00 | 0.01 | 0.01 | 61 | 1010.3 |
| 20260510004659 | 83 | 136 | 7.0 | 11.3 | 0.00 | 0.01 | 0.01 | 59 | 1010.3 |
| 20260510004151 | 83 | 107 | 7.0 | 9.6 | 0.00 | 0.01 | 0.01 | 58 | 1010.2 |
| 20260510003644 | 84 | 125 | 7.0 | 8.7 | 0.00 | 0.01 | 0.01 | 57 | 1010.1 |
| 20260510003142 | 84 | 118 | 7.0 | 9.6 | 0.00 | 0.01 | 0.01 | 56 | 1010.0 |
| 20260510002635 | 84 | 117 | 7.0 | 9.6 | 0.00 | 0.01 | 0.01 | 57 | 1009.9 |
| 20260510002130 | 84 | 126 | 6.1 | 8.7 | 0.00 | 0.01 | 0.01 | 55 | 1009.9 |
| 20260510001625 | 84 | 138 | 7.0 | 8.7 | 0.00 | 0.01 | 0.01 | 56 | 1010.0 |
| 20260510001129 | 84 | 144 | 7.0 | 8.7 | 0.00 | 0.01 | 0.01 | 57 | 1009.9 |
| 20260510000632 | 84 | 142 | 6.1 | 7.8 | 0.00 | 0.01 | 0.01 | 61 | 1009.9 |
| 20260510000128 | 84 | 152 | 6.1 | 7.0 | 0.00 | 0.01 | 0.01 | 59 | 1009.8 |
| 20260509235632 | 84 | 140 | 6.1 | 7.8 | 0.00 | 0.01 | 0.01 | 60 | 1009.7 |
| 20260509235133 | 84 | 128 | 5.2 | 7.8 | 0.00 | 0.01 | 0.01 | 60 | 1009.7 |
| 20260509234629 | 84 | 128 | 5.2 | 7.8 | 0.00 | 0.01 | 0.01 | 60 | 1009.7 |
| 20260509234146 | 84 | 133 | 6.1 | 7.8 | 0.00 | 0.01 | 0.01 | 63 | 1009.7 |
| 20260509233701 | 83 | 142 | 6.1 | 8.7 | 0.00 | 0.01 | 0.01 | 63 | 1009.6 |
| 20260509233154 | 83 | 141 | 6.1 | 12.2 | 0.00 | 0.01 | 0.01 | 65 | 1009.6 |
| 20260509232647 | 82 | 136 | 8.7 | 12.2 | 0.00 | 0.01 | 0.01 | 64 | 1009.5 |
| 20260509232149 | 81 | 153 | 6.1 | 7.0 | 0.00 | 0.01 | 0.01 | 69 | 1009.6 |
| 20260509231701 | 81 | 146 | 3.5 | 6.1 | 0.00 | 0.01 | 0.01 | 69 | 1009.5 |
| 20260509231151 | 82 | 155 | 5.2 | 7.0 | 0.00 | 0.01 | 0.01 | 69 | 1009.6 |
| 20260509230644 | 82 | 165 | 6.1 | 10.4 | 0.00 | 0.01 | 0.01 | 68 | 1009.4 |
| 20260509225622 | 83 | 166 | 7.8 | 11.3 | 0.00 | 0.01 | 0.01 | 67 | 1009.5 |
| 20260509225136 | 83 | 161 | 5.2 | 7.0 | 0.00 | 0.01 | 0.01 | 67 | 1009.5 |
| 20260509224655 | 83 | 141 | 5.2 | 7.8 | 0.00 | 0.01 | 0.01 | 65 | 1009.5 |
| 20260509224147 | 83 | 149 | 6.1 | 8.7 | 0.00 | 0.01 | 0.01 | 64 | 1009.4 |
| 20260509223658 | 83 | 143 | 7.0 | 10.4 | 0.00 | 0.01 | 0.01 | 64 | 1009.5 |
| 20260509223147 | 82 | 122 | 7.8 | 12.2 | 0.00 | 0.01 | 0.01 | 65 | 1009.5 |
| 20260509222707 | 82 | 132 | 9.6 | 13.0 | 0.00 | 0.01 | 0.01 | 65 | 1009.4 |
| 20260509222208 | 81 | 132 | 9.6 | 21.7 | 0.00 | 0.01 | 0.01 | 65 | 1009.5 |
| 20260509221646 | 80 | 134 | 14.8 | 27.8 | 0.00 | 0.01 | 0.01 | 65 | 1009.7 |
| 20260509221144 | 81 | 136 | 18.2 | 31.3 | 0.00 | 0.01 | 0.01 | 66 | 1009.7 |
| 20260509220641 | 83 | 124 | 16.5 | 31.3 | 0.00 | 0.01 | 0.01 | 65 | 1009.9 |
| 20260509220135 | 85 | 120 | 13.0 | 18.2 | 0.00 | 0.01 | 0.01 | 65 | 1009.8 |
| 20260509215639 | 85 | 101 | 9.6 | 18.2 | 0.00 | 0.01 | 0.01 | 63 | 1009.9 |
| 20260509215138 | 87 | 90 | 6.1 | 12.2 | 0.00 | 0.01 | 0.01 | 65 | 1009.6 |
| 20260509214650 | 87 | 152 | 1.7 | 3.5 | 0.00 | 0.01 | 0.01 | 66 | 1009.5 |
| 20260509214147 | 86 | 143 | 0.9 | 1.7 | 0.00 | 0.01 | 0.01 | 66 | 1009.6 |
| 20260509213648 | 86 | 143 | 0.0 | 0.9 | 0.00 | 0.01 | 0.01 | 68 | 1009.7 |
| 20260509213145 | 86 | 143 | 0.0 | 0.9 | 0.00 | 0.01 | 0.01 | 68 | 1009.8 |
| 20260509212620 | 86 | 143 | 0.0 | 0.9 | 0.00 | 0.01 | 0.01 | 69 | 1009.8 |
| 20260509212116 | 85 | 146 | 0.0 | 0.9 | 0.00 | 0.01 | 0.01 | 69 | 1009.9 |
| 20260509211701 | 85 | 146 | 0.0 | 0.0 | 0.00 | 0.01 | 0.01 | 71 | 1009.8 |
| 20260509210658 | 85 | 146 | 0.0 | 0.9 | 0.00 | 0.01 | 0.01 | 72 | 1010.0 |
| 20260509210131 | 85 | 146 | 0.9 | 0.9 | 0.00 | 0.01 | 0.01 | 71 | 1010.0 |
| 20260509205641 | 85 | 146 | 0.0 | 1.7 | 0.00 | 0.01 | 0.01 | 71 | 1010.2 |
| 20260509205153 | 85 | 146 | 0.9 | 1.7 | 0.00 | 0.01 | 0.01 | 73 | 1010.1 |
| 20260509204701 | 85 | 146 | 0.0 | 0.9 | 0.00 | 0.01 | 0.01 | 73 | 1010.2 |
| 20260509204113 | 85 | 146 | 0.0 | 0.9 | 0.00 | 0.01 | 0.01 | 73 | 1010.1 |
| 20260509203630 | 85 | 146 | 0.0 | 3.5 | 0.00 | 0.01 | 0.01 | 73 | 1010.3 |
| 20260509203230 | 84 | 146 | 0.9 | 3.5 | 0.00 | 0.01 | 0.01 | 74 | 1010.3 |
| 20260509202707 | 84 | 146 | 1.7 | 2.6 | 0.00 | 0.01 | 0.01 | 74 | 1010.4 |
| 20260509201713 | 83 | 145 | 0.0 | 0.9 | 0.00 | 0.01 | 0.01 | 74 | 1010.4 |
| 20260509201153 | 83 | 145 | 0.0 | 1.7 | 0.00 | 0.01 | 0.01 | 74 | 1010.8 |
| 20260509200638 | 83 | 145 | 0.9 | 1.7 | 0.00 | 0.01 | 0.01 | 75 | 1010.7 |
| 20260509200148 | 82 | 145 | 0.0 | 3.5 | 0.00 | 0.01 | 0.01 | 75 | 1010.8 |
| 20260509195703 | 82 | 145 | 1.7 | 4.3 | 0.00 | 0.01 | 0.01 | 75 | 1010.9 |
| 20260509195155 | 82 | 147 | 3.5 | 5.2 | 0.00 | 0.01 | 0.01 | 76 | 1010.9 |
| 20260509194709 | 82 | 147 | 4.3 | 5.2 | 0.00 | 0.01 | 0.01 | 78 | 1010.9 |
| 20260509194158 | 83 | 159 | 4.3 | 5.2 | 0.00 | 0.01 | 0.01 | 79 | 1010.8 |
| 20260509193706 | 83 | 173 | 4.3 | 5.2 | 0.00 | 0.01 | 0.01 | 77 | 1010.9 |
| 20260509193140 | 83 | 180 | 4.3 | 5.2 | 0.00 | 0.01 | 0.01 | 76 | 1011.0 |
| 20260509192211 | 84 | 269 | 0.9 | 5.2 | 0.00 | 0.01 | 0.01 | 74 | 1011.4 |
| 20260509191704 | 84 | 269 | 1.7 | 5.2 | 0.00 | 0.01 | 0.01 | 74 | 1011.4 |
| 20260509191200 | 83 | 230 | 2.6 | 5.2 | 0.00 | 0.01 | 0.01 | 74 | 1011.4 |
| 20260509190654 | 83 | 226 | 4.3 | 5.2 | 0.00 | 0.01 | 0.01 | 75 | 1011.6 |
| 20260509190151 | 83 | 252 | 0.9 | 7.0 | 0.00 | 0.01 | 0.01 | 77 | 1011.6 |
| 20260509185624 | 83 | 20 | 4.3 | 7.8 | 0.00 | 0.01 | 0.01 | 76 | 1011.7 |
| 20260509185146 | 82 | 288 | 0.9 | 7.0 | 0.00 | 0.01 | 0.01 | 77 | 1011.7 |
| 20260509184641 | 82 | 334 | 1.7 | 5.2 | 0.00 | 0.01 | 0.01 | 79 | 1011.8 |
| 20260509184139 | 82 | 288 | 0.9 | 5.2 | 0.00 | 0.01 | 0.01 | 80 | 1011.9 |
| 20260509183636 | 81 | 346 | 1.7 | 5.2 | 0.00 | 0.01 | 0.01 | 80 | 1011.9 |
| 20260509183212 | 81 | 316 | 0.9 | 5.2 | 0.00 | 0.01 | 0.01 | 80 | 1011.8 |
| 20260509182707 | 81 | 294 | 1.7 | 5.2 | 0.00 | 0.01 | 0.01 | 81 | 1011.7 |
| 20260509182145 | 81 | 336 | 2.6 | 5.2 | 0.00 | 0.01 | 0.01 | 81 | 1011.9 |
| 20260509181126 | 80 | 286 | 2.6 | 6.1 | 0.00 | 0.01 | 0.01 | 82 | 1012.1 |
| 20260509180624 | 80 | 24 | 3.5 | 7.0 | 0.00 | 0.01 | 0.01 | 83 | 1012.2 |
| 20260509180132 | 80 | 334 | 3.5 | 7.8 | 0.00 | 0.01 | 0.01 | 83 | 1012.3 |
| 20260509175629 | 80 | 342 | 3.5 | 7.8 | 0.00 | 0.01 | 0.01 | 84 | 1012.3 |
| 20260509175124 | 79 | 334 | 2.6 | 7.0 | 0.00 | 0.01 | 0.01 | 85 | 1012.4 |
| 20260509174618 | 79 | 288 | 0.0 | 5.2 | 0.00 | 0.01 | 0.01 | 85 | 1012.4 |
| 20260509174131 | 79 | 287 | 1.7 | 6.1 | 0.00 | 0.01 | 0.01 | 86 | 1012.6 |
| 20260509173645 | 79 | 304 | 2.6 | 6.1 | 0.00 | 0.01 | 0.01 | 86 | 1012.5 |
| 20260509172622 | 78 | 334 | 4.3 | 5.2 | 0.00 | 0.01 | 0.01 | 87 | 1012.6 |
| 20260509172146 | 78 | 325 | 1.7 | 7.0 | 0.00 | 0.01 | 0.01 | 87 | 1012.7 |
| 20260509171627 | 78 | 10 | 4.3 | 7.0 | 0.00 | 0.01 | 0.01 | 88 | 1012.8 |
| 20260509171126 | 78 | 307 | 5.2 | 7.0 | 0.00 | 0.01 | 0.01 | 88 | 1012.8 |
| 20260509170730 | 77 | 297 | 4.3 | 7.0 | 0.00 | 0.01 | 0.01 | 89 | 1012.7 |
| 20260509170118 | 77 | 292 | 5.2 | 7.0 | 0.00 | 0.01 | 0.01 | 89 | 1012.7 |
| 20260509165658 | 77 | 324 | 2.6 | 6.1 | 0.00 | 0.01 | 0.01 | 90 | 1012.7 |
| 20260509165148 | 76 | 324 | 2.6 | 6.1 | 0.00 | 0.01 | 0.01 | 90 | 1012.5 |
| 20260509164658 | 76 | 299 | 0.9 | 4.3 | 0.00 | 0.01 | 0.01 | 90 | 1012.5 |
| 20260509164154 | 76 | 299 | 1.7 | 6.1 | 0.00 | 0.01 | 0.01 | 90 | 1012.7 |
| 20260509163651 | 76 | 299 | 4.3 | 7.8 | 0.00 | 0.01 | 0.01 | 90 | 1012.7 |
| 20260509163150 | 76 | 307 | 4.3 | 7.8 | 0.00 | 0.01 | 0.01 | 90 | 1012.8 |
| 20260509162644 | 75 | 297 | 5.2 | 7.8 | 0.00 | 0.01 | 0.01 | 91 | 1012.9 |
| 20260509162141 | 75 | 301 | 5.2 | 7.0 | 0.00 | 0.01 | 0.01 | 91 | 1012.9 |
| 20260509161655 | 75 | 305 | 4.3 | 7.0 | 0.00 | 0.01 | 0.01 | 91 | 1013.0 |
| 20260509161150 | 75 | 313 | 2.6 | 5.2 | 0.00 | 0.01 | 0.01 | 91 | 1013.0 |
| 20260509160644 | 74 | 332 | 2.6 | 5.2 | 0.00 | 0.01 | 0.01 | 92 | 1012.9 |
| 20260509160138 | 74 | 320 | 2.6 | 7.0 | 0.00 | 0.01 | 0.01 | 92 | 1013.0 |
| 20260509155655 | 74 | 317 | 2.6 | 7.8 | 0.00 | 0.01 | 0.01 | 92 | 1013.0 |
| 20260509155206 | 74 | 318 | 3.5 | 7.8 | 0.00 | 0.01 | 0.01 | 92 | 1013.1 |
| 20260509154638 | 74 | 282 | 0.0 | 1.7 | 0.00 | 0.01 | 0.01 | 92 | 1012.9 |
| 20260509154150 | 74 | 282 | 0.9 | 1.7 | 0.00 | 0.01 | 0.01 | 92 | 1012.9 |
| 20260509153644 | 74 | 193 | 0.0 | 0.9 | 0.00 | 0.01 | 0.01 | 92 | 1012.9 |
| 20260509153140 | 73 | 193 | 0.0 | 0.9 | 0.00 | 0.01 | 0.01 | 92 | 1012.9 |
| 20260509152635 | 73 | 193 | 0.0 | 5.2 | 0.00 | 0.01 | 0.01 | 92 | 1013.0 |
| 20260509152126 | 73 | 193 | 0.9 | 7.0 | 0.00 | 0.01 | 0.01 | 92 | 1012.9 |
| 20260509151710 | 73 | 188 | 5.2 | 7.8 | 0.00 | 0.01 | 0.01 | 92 | 1012.7 |
| 20260509151126 | 73 | 178 | 7.0 | 7.8 | 0.00 | 0.01 | 0.01 | 92 | 1012.5 |
| 20260509150638 | 73 | 180 | 4.3 | 6.1 | 0.00 | 0.01 | 0.01 | 92 | 1012.8 |
| 20260509145711 | 73 | 198 | 4.3 | 7.0 | 0.01 | 0.01 | 0.01 | 92 | 1013.1 |
| 20260509145149 | 73 | 195 | 6.1 | 7.0 | 0.01 | 0.01 | 0.01 | 92 | 1013.1 |
| 20260509144212 | 73 | 193 | 2.6 | 5.2 | 0.01 | 0.01 | 0.01 | 92 | 1013.2 |
| 20260509143708 | 73 | 195 | 3.5 | 6.1 | 0.01 | 0.01 | 0.01 | 92 | 1013.4 |
| 20260509143204 | 73 | 201 | 5.2 | 7.0 | 0.01 | 0.01 | 0.01 | 92 | 1013.3 |
| 20260509142658 | 73 | 211 | 5.2 | 7.0 | 0.01 | 0.01 | 0.01 | 92 | 1013.1 |